Wind_Speed
16 19 23 24 22 19 16 21 17 16 15 14 14 15 14 12 11 10 9 8 9 8 8 8 8 8 8 8 9 9 9 9 9 8 8 7 6 6 5 5 4 4 4 4 5 5 5 4 4
16 19 23 27 25 18 19 23 20 18 16 14 15 15 14 13 11 11 9 8 9 9 9 8 8 8 8 9 9 10 10 10 9 9 8 7 7 6 6 5 5 5 5 5 5 5 5 4 4
19 20 23 28 30 23 20 26 23 19 17 15 15 14 13 13 12 11 9 8 8 9 9 8 8 8 8 9 10 10 11 11 10 9 8 8 7 6 6 5 5 5 5 5 5 5 5 5 5
22 22 23 27 31 30 29 29 25 21 20 17 15 13 12 11 10 9 9 8 9 9 9 8 8 8 8 9 10 11 11 11 11 10 9 8 7 6 6 5 5 4 4 4 4 5 5 6 7
26 24 23 25 31 33 35 31 27 24 22 19 15 13 11 9 8 7 8 9 9 9 9 9 8 8 9 10 11 11 11 11 11 10 9 8 7 6 6 5 4 4 3 4 4 5 6 7 8
30 26 24 23 29 34 36 33 29 26 24 20 17 14 11 9 8 7 7 8 9 9 9 9 9 9 9 10 11 12 12 12 11 10 9 8 7 6 5 4 4 3 3 4 5 6 8 9 10
33 30 26 24 27 34 36 35 32 29 25 22 18 14 12 10 9 8 8 8 9 9 10 9 9 10 10 11 12 12 12 11 11 10 9 8 6 5 5 4 3 2 3 4 6 7 9 10 11
35 33 29 26 27 33 37 38 35 32 29 24 20 16 14 11 9 8 8 8 9 10 10 10 10 11 11 12 12 12 11 11 10 10 9 7 6 5 4 3 3 3 4 5 7 8 10 12 12
37 36 32 28 28 32 40 40 37 35 31 26 23 19 15 12 11 9 8 7 9 10 11 11 11 12 12 12 12 12 11 11 10 9 8 8 7 6 4 4 3 4 5 7 8 10 11 13 13
39 38 33 32 31 34 39 39 39 37 33 29 25 21 17 14 12 10 9 8 9 10 12 12 11 12 12 12 12 11 11 10 10 9 9 8 7 6 5 5 5 5 6 8 10 11 12 13 13
40 38 37 35 31 32 35 39 39 38 36 32 28 24 19 15 13 11 10 10 10 11 12 12 12 12 12 12 11 11 10 10 10 10 10 10 9 8 7 7 7 7 8 9 11 12 13 14 14
37 39 38 35 34 33 34 37 39 39 37 34 31 26 20 17 14 12 11 11 11 11 11 11 11 12 11 11 11 10 10 10 11 11 11 11 11 10 9 9 9 9 9 11 12 13 14 14 14
36 38 38 36 35 33 33 34 36 37 36 36 33 28 22 18 15 13 13 13 12 12 12 12 11 11 11 11 11 11 11 11 11 12 12 12 12 12 11 11 11 11 12 13 13 14 15 15 15
34 36 37 36 34 32 31 32 33 35 36 37 34 30 26 21 17 14 13 14 14 14 13 13 12 11 11 12 11 11 12 12 13 13 14 14 14 14 14 14 14 14 14 15 15 15 15 16 15
30 33 35 34 33 32 31 30 31 33 36 36 35 31 28 23 20 17 15 15 15 15 15 14 14 13 12 13 13 13 13 14 14 15 15 16 16 17 17 17 17 17 17 18 18 18 18 18 18
28 29 31 33 32 31 30 28 30 32 34 36 35 32 28 24 22 21 18 17 17 17 16 16 15 14 14 14 15 15 15 15 16 16 17 18 19 19 20 21 21 21 21 21 21 22 21 21 20
26 27 29 31 31 30 29 27 30 30 31 35 36 33 29 27 25 23 21 19 19 19 19 19 18 17 16 17 17 17 17 17 18 19 19 21 22 24 24 25 25 26 26 26 26 25 25 24 23
26 26 27 30 31 30 28 28 28 29 29 32 35 34 32 29 27 25 24 23 22 21 21 22 21 21 20 19 19 19 19 20 20 21 22 24 26 28 29 29 30 30 30 29 29 28 27 27 25
26 26 26 29 30 29 27 26 27 29 29 31 33 35 34 32 30 28 27 26 25 24 23 23 24 24 23 21 21 21 22 23 24 25 25 27 29 31 32 32 32 31 31 31 29 28 28 29 27
24 24 25 27 28 28 27 25 26 28 29 31 33 35 35 34 32 30 30 28 27 27 25 25 25 26 25 25 25 26 26 26 27 28 28 30 32 34 35 35 34 34 32 30 29 29 28 27 28
23 24 25 27 28 27 25 24 26 28 29 30 32 34 34 34 33 32 31 31 29 29 27 26 27 27 27 28 29 28 28 28 29 30 31 33 34 35 35 34 33 32 30 29 29 29 29 27 26
22 23 25 26 26 25 25 21 26 27 29 30 31 32 32 33 33 34 33 33 32 31 29 29 29 29 29 31 31 30 30 31 32 33 33 34 35 35 35 33 32 31 29 29 29 30 29 28 27
22 24 24 25 26 26 26 23 24 26 28 29 30 31 31 32 34 35 35 34 34 34 33 31 32 32 32 33 33 33 33 33 34 35 35 35 35 36 34 33 32 31 30 30 29 29 29 28 29
22 23 23 24 24 24 26 24 24 25 25 26 28 29 30 31 33 35 36 36 35 34 33 34 35 33 33 34 35 36 37 36 36 35 36 36 36 36 37 35 33 31 30 29 30 31 31 31 31
21 21 19 20 21 21 26 25 26 25 23 23 24 26 27 28 30 32 34 35 36 35 34 34 34 34 34 35 36 38 38 37 36 37 37 37 38 39 39 36 34 33 32 33 32 32 33 34 35
19 21 17 14 17 20 25 26 27 25 23 23 23 24 25 26 26 28 31 33 34 35 36 35 35 35 35 36 37 38 38 39 40 39 39 38 39 40 41 39 37 35 35 35 35 34 35 36 37
19 19 20 19 17 17 23 26 26 25 24 23 24 24 25 25 26 27 29 31 33 35 36 37 37 38 39 40 41 41 41 43 43 42 42 42 42 43 43 42 39 39 39 38 38 38 38 39 40
18 19 21 18 14 16 21 25 26 26 25 25 25 26 26 27 28 29 31 32 34 36 37 38 39 41 42 43 43 42 43 44 44 45 45 44 46 46 45 45 44 43 42 42 42 41 41 43 43
15 17 18 17 16 14 16 22 25 26 25 25 27 28 28 29 30 31 32 34 36 37 38 39 41 42 43 44 44 45 46 46 47 46 47 48 48 49 48 47 46 46 45 46 46 45 45 45 47
15 16 17 15 17 18 15 20 22 24 25 27 28 29 30 32 32 34 34 35 37 38 38 40 41 42 44 45 46 47 47 47 48 48 49 49 49 49 49 48 48 48 48 48 48 47 46 47 50
Wind_Direction
244 228 216 209 209 214 221 229 225 225 225 222 217 214 213 213 213 221 238 239 237 234 231 227 225 224 224 226 228 228 226 223 218 217 217 216 216 219 221 222 226 230 236 244 251 258 263 267 267
247 232 219 211 209 211 227 230 226 226 227 220 217 214 214 214 219 222 233 238 237 234 231 228 224 220 218 219 220 220 219 215 212 211 211 212 212 213 215 218 224 234 241 248 254 259 262 264 265
246 237 223 215 211 208 222 229 224 224 223 218 213 213 218 220 224 227 235 234 232 231 229 224 219 213 211 212 213 213 211 207 204 202 203 205 207 208 211 217 225 236 244 253 260 265 265 266 265
241 238 230 221 216 214 219 226 223 222 223 217 214 215 221 225 227 233 233 233 230 226 221 217 212 209 207 207 208 205 202 199 196 194 194 197 200 200 205 213 222 232 245 258 269 275 276 273 270
237 237 233 227 219 217 224 227 226 224 223 219 215 216 224 227 233 236 232 231 225 218 214 211 206 205 205 205 203 198 194 191 188 187 189 193 195 197 204 212 220 236 257 275 285 288 286 281 275
235 235 236 232 221 219 223 226 227 225 225 224 221 222 230 236 243 248 240 228 218 212 209 205 202 202 202 200 197 193 189 186 185 186 189 192 194 197 204 216 230 250 279 295 298 298 297 293 287
235 234 235 234 223 219 221 225 225 225 224 223 222 224 232 242 251 252 242 226 215 209 203 200 198 198 197 195 191 188 185 184 185 187 190 194 198 203 209 218 233 264 293 305 307 307 308 306 300
234 234 232 232 224 219 220 223 224 224 224 224 224 226 234 245 255 252 237 220 211 203 197 196 195 194 193 188 186 186 185 186 189 192 196 202 208 214 222 236 262 287 303 309 314 316 317 315 309
233 232 230 231 229 219 220 221 223 225 226 225 226 228 232 243 253 251 236 217 204 196 191 189 189 190 188 186 186 188 189 192 196 201 207 215 222 229 239 256 278 295 303 308 313 318 319 319 316
231 231 229 230 227 219 221 221 223 224 223 223 224 226 227 240 251 246 231 214 197 188 184 184 184 186 189 190 190 192 195 200 206 213 221 229 237 242 249 264 277 291 300 307 310 314 316 319 319
230 230 227 227 226 223 222 222 225 227 225 222 222 224 226 236 247 246 227 210 197 187 183 183 186 191 195 197 198 201 205 212 220 227 235 242 248 250 256 266 278 287 295 303 308 309 311 315 318
230 229 227 226 225 224 222 223 227 229 226 223 223 224 225 231 241 244 227 208 197 188 187 186 189 195 200 205 210 214 220 226 233 239 245 251 256 259 262 269 276 283 290 295 301 305 306 310 314
228 226 226 225 225 225 226 227 229 230 225 225 224 223 222 227 234 240 232 215 204 196 191 192 198 203 207 213 218 224 232 239 243 249 254 256 260 263 266 269 272 277 284 289 293 299 300 303 308
228 225 225 225 225 227 229 230 231 231 226 225 224 222 222 222 229 238 234 217 210 205 201 199 204 210 216 222 225 233 241 245 248 254 257 260 261 263 266 268 270 274 280 284 287 291 294 294 298
228 225 224 223 223 226 228 231 233 230 227 225 223 222 221 221 227 236 235 225 218 215 212 210 211 215 222 229 233 239 245 249 254 258 260 262 264 266 267 268 270 272 275 278 280 283 286 286 288
225 223 222 220 220 223 226 229 230 229 227 225 224 222 220 218 223 229 233 233 227 223 221 219 219 222 227 233 238 243 247 250 255 259 261 262 264 265 266 268 270 271 273 275 277 278 279 281 281
220 219 218 219 218 220 223 224 227 227 225 223 223 221 217 217 221 228 233 235 231 226 225 223 223 225 230 235 240 243 246 250 254 259 263 265 266 266 266 268 270 272 273 275 277 278 277 277 278
217 215 215 216 215 217 219 223 225 223 220 219 220 220 217 216 221 227 233 233 230 229 229 225 225 228 231 235 240 243 247 248 252 259 264 269 270 269 268 270 271 272 274 276 276 276 275 274 274
214 212 212 214 213 215 217 220 222 220 218 217 217 219 219 219 222 228 234 236 233 233 234 228 229 230 232 235 239 241 244 247 252 257 264 270 272 271 271 271 273 274 274 277 277 277 276 274 272
212 210 211 212 211 212 215 218 220 218 218 218 217 218 221 223 226 232 236 239 238 237 240 238 237 235 234 236 239 242 246 252 257 260 263 268 272 272 270 273 273 274 273 275 276 277 278 276 274
210 207 208 210 209 212 215 217 219 219 219 220 220 221 223 227 230 234 238 239 240 242 241 240 240 239 238 239 243 246 249 254 257 260 262 268 272 272 270 271 276 277 276 280 280 279 279 274 275
208 207 207 208 207 211 211 216 221 221 221 222 223 224 226 230 233 236 240 241 241 242 244 243 240 242 242 242 244 248 252 254 258 260 263 268 273 274 276 277 282 282 282 284 282 280 278 274 274
206 205 205 207 208 210 210 210 225 224 224 225 226 226 228 231 234 237 239 240 242 243 243 244 244 242 242 244 247 249 253 255 258 263 268 273 277 281 284 288 289 290 290 285 282 279 279 276 275
205 204 204 206 208 213 214 214 226 227 228 228 229 230 232 235 237 238 238 240 243 244 245 245 244 245 249 251 254 256 258 261 264 267 272 274 279 287 290 291 292 292 293 291 285 280 279 278 277
204 200 202 208 210 216 219 219 226 228 230 231 231 232 234 236 237 236 235 238 241 243 245 247 249 251 255 257 260 261 262 267 270 273 275 277 282 286 287 289 292 290 289 289 288 283 279 278 278
204 198 193 205 216 222 222 223 226 228 230 231 232 233 234 234 234 235 236 237 240 243 246 249 252 255 260 264 265 267 270 273 274 275 277 280 283 283 286 289 291 289 288 287 286 283 280 279 279
200 196 201 203 208 215 225 226 228 228 228 229 230 233 235 236 236 236 238 241 243 245 249 252 255 258 262 265 266 269 272 274 277 279 280 280 282 285 288 291 289 288 288 287 286 282 280 279 278
197 200 204 201 211 223 233 232 231 229 230 229 230 233 235 237 239 240 243 246 248 249 251 254 257 261 265 269 270 272 274 276 281 283 283 283 285 288 289 288 287 286 285 285 284 282 281 279 278
198 201 204 206 207 217 239 236 235 235 234 235 235 236 237 239 242 243 246 248 250 251 253 257 260 264 269 272 275 277 279 279 281 283 283 284 285 286 286 286 284 284 283 283 281 279 279 278 277
201 205 209 212 226 219 230 244 239 240 241 241 241 241 242 244 245 247 248 251 253 256 258 261 264 267 271 274 276 277 278 280 281 282 281 282 282 282 282 282 281 280 281 280 278 278 277 279 277
Height
5885 5887 5889 5892 5895 5897 5898 5896 5897 5898 5898 5899 5900 5900 5900 5901 5902 5903 5901 5899 5899 5899 5900 5900 5901 5902 5902 5903 5904 5904 5905 5905 5905 5905 5906 5906 5906 5906 5907 5907 5907 5907 5907 5907 5907 5907 5906 5906 5906
5882 5884 5887 5889 5892 5896 5896 5893 5895 5895 5896 5897 5898 5898 5898 5898 5898 5898 5897 5897 5897 5897 5897 5898 5899 5900 5900 5901 5902 5902 5903 5903 5904 5904 5904 5904 5905 5905 5905 5906 5905 5905 5905 5905 5905 5905 5905 5905 5904
5879 5880 5883 5886 5888 5891 5891 5890 5891 5893 5894 5895 5896 5896 5897 5897 5896 5896 5895 5895 5895 5895 5895 5896 5897 5898 5899 5899 5900 5901 5902 5902 5902 5902 5903 5903 5904 5904 5905 5905 5905 5904 5904 5904 5904 5904 5904 5903 5903
5875 5877 5880 5882 5884 5886 5886 5886 5888 5890 5891 5893 5894 5895 5895 5895 5894 5894 5893 5893 5893 5893 5893 5894 5894 5896 5897 5898 5899 5900 5900 5901 5901 5901 5901 5902 5903 5904 5904 5904 5904 5904 5904 5904 5903 5903 5902 5902 5902
5870 5873 5875 5877 5879 5881 5881 5882 5885 5887 5889 5891 5892 5893 5893 5893 5892 5892 5891 5891 5891 5891 5891 5892 5892 5894 5895 5896 5897 5898 5899 5899 5900 5900 5901 5901 5902 5903 5903 5903 5904 5904 5904 5903 5903 5902 5901 5901 5900
5865 5868 5871 5872 5875 5877 5877 5879 5882 5884 5886 5888 5890 5891 5891 5891 5891 5890 5890 5889 5889 5889 5890 5890 5891 5892 5893 5894 5895 5896 5897 5898 5899 5900 5900 5901 5902 5902 5903 5903 5903 5903 5903 5903 5902 5901 5900 5899 5899
5860 5863 5865 5868 5871 5873 5874 5875 5878 5880 5883 5885 5887 5889 5889 5889 5889 5889 5888 5888 5888 5888 5888 5889 5890 5891 5892 5893 5894 5896 5897 5898 5898 5899 5900 5900 5901 5902 5902 5902 5902 5902 5902 5902 5901 5900 5899 5898 5897
5853 5857 5860 5863 5865 5868 5869 5870 5873 5876 5879 5882 5885 5887 5887 5888 5888 5887 5887 5886 5886 5887 5887 5888 5889 5890 5891 5892 5894 5895 5896 5897 5898 5898 5899 5899 5900 5901 5901 5901 5901 5901 5901 5900 5899 5899 5898 5896 5895
5845 5850 5854 5858 5860 5863 5863 5865 5869 5872 5875 5879 5882 5884 5886 5886 5886 5886 5886 5885 5885 5885 5886 5887 5888 5889 5891 5892 5893 5894 5895 5896 5897 5898 5898 5899 5899 5900 5900 5900 5900 5900 5900 5899 5898 5897 5896 5894 5893
5837 5842 5849 5850 5853 5855 5856 5860 5863 5867 5871 5875 5879 5881 5883 5885 5885 5885 5884 5884 5884 5884 5885 5886 5888 5889 5890 5891 5892 5893 5894 5896 5896 5897 5897 5898 5898 5899 5899 5899 5899 5899 5898 5897 5897 5895 5894 5892 5891
5830 5836 5840 5843 5846 5849 5852 5855 5858 5862 5867 5871 5875 5878 5881 5883 5884 5883 5883 5883 5883 5883 5884 5886 5887 5888 5890 5891 5892 5893 5894 5895 5896 5896 5897 5897 5897 5897 5898 5898 5898 5897 5897 5896 5895 5894 5892 5891 5889
5823 5828 5832 5836 5839 5843 5847 5850 5853 5857 5862 5866 5870 5875 5878 5880 5882 5882 5882 5882 5883 5883 5884 5885 5886 5888 5889 5890 5891 5892 5893 5894 5895 5895 5896 5896 5896 5896 5897 5897 5896 5896 5895 5894 5893 5892 5890 5889 5887
5816 5820 5825 5829 5834 5838 5842 5845 5848 5852 5858 5861 5866 5871 5876 5878 5879 5881 5881 5881 5882 5883 5883 5885 5886 5887 5888 5889 5890 5891 5892 5893 5894 5894 5894 5894 5895 5895 5895 5895 5894 5894 5893 5892 5891 5890 5888 5887 5885
5810 5814 5819 5824 5829 5834 5838 5841 5844 5848 5853 5857 5862 5868 5872 5875 5877 5879 5879 5880 5881 5881 5882 5883 5884 5885 5887 5888 5889 5890 5891 5891 5892 5892 5892 5893 5893 5893 5893 5892 5892 5892 5891 5890 5889 5888 5886 5884 5883
5805 5810 5815 5819 5824 5829 5833 5837 5840 5845 5848 5852 5858 5864 5868 5871 5874 5876 5877 5878 5879 5880 5881 5881 5882 5883 5885 5886 5887 5887 5888 5889 5890 5890 5890 5890 5891 5890 5890 5890 5889 5889 5888 5887 5886 5885 5883 5882 5880
5800 5805 5810 5813 5818 5823 5830 5833 5836 5839 5843 5848 5853 5859 5864 5868 5870 5872 5874 5875 5876 5877 5878 5879 5880 5882 5882 5883 5884 5885 5886 5887 5887 5887 5888 5888 5887 5887 5887 5886 5885 5884 5884 5883 5882 5880 5879 5878 5876
5796 5800 5804 5808 5813 5818 5824 5829 5831 5834 5838 5844 5849 5854 5859 5863 5866 5869 5871 5872 5873 5874 5875 5877 5878 5879 5880 5881 5882 5882 5883 5884 5884 5884 5884 5884 5884 5883 5882 5881 5881 5879 5878 5877 5876 5875 5874 5872 5871
5792 5796 5800 5804 5809 5814 5819 5823 5826 5830 5834 5839 5844 5849 5854 5858 5862 5864 5866 5868 5870 5871 5872 5873 5875 5875 5876 5877 5878 5879 5880 5880 5880 5880 5880 5880 5879 5878 5877 5876 5875 5873 5872 5871 5870 5869 5867 5866 5865
5787 5791 5796 5800 5805 5810 5814 5818 5822 5826 5830 5834 5839 5844 5849 5853 5856 5859 5862 5864 5866 5867 5869 5870 5871 5872 5873 5874 5875 5875 5875 5875 5876 5875 5875 5874 5872 5871 5870 5869 5868 5866 5865 5865 5863 5861 5860 5859 5858
5784 5788 5793 5797 5801 5806 5811 5815 5818 5822 5826 5830 5834 5839 5843 5848 5851 5855 5857 5860 5862 5864 5865 5866 5866 5867 5868 5869 5870 5870 5870 5870 5870 5870 5869 5867 5865 5864 5862 5861 5861 5859 5858 5857 5856 5855 5853 5852 5852
5781 5785 5789 5793 5798 5803 5808 5812 5815 5818 5822 5826 5830 5834 5838 5842 5847 5850 5853 5855 5857 5859 5860 5861 5862 5863 5864 5864 5864 5864 5864 5864 5864 5863 5862 5860 5859 5857 5855 5854 5853 5852 5851 5849 5848 5847 5846 5846 5845
5778 5782 5786 5790 5796 5800 5805 5810 5811 5815 5818 5822 5826 5830 5834 5838 5842 5845 5848 5850 5852 5854 5855 5856 5857 5858 5858 5858 5858 5858 5858 5858 5857 5854 5853 5853 5852 5850 5849 5847 5845 5844 5843 5841 5841 5839 5839 5838 5838
5775 5779 5784 5788 5793 5797 5802 5807 5808 5810 5814 5818 5821 5825 5829 5833 5836 5839 5842 5844 5846 5848 5849 5850 5851 5852 5852 5852 5852 5852 5852 5851 5849 5848 5847 5846 5845 5843 5841 5839 5838 5837 5835 5835 5833 5832 5832 5832 5831
5772 5777 5781 5786 5790 5795 5798 5803 5804 5806 5809 5813 5816 5820 5823 5827 5830 5833 5836 5838 5840 5842 5843 5844 5845 5845 5846 5846 5846 5845 5845 5843 5841 5841 5840 5839 5838 5835 5834 5833 5831 5830 5829 5828 5827 5826 5826 5825 5824
5770 5776 5782 5786 5789 5792 5794 5797 5799 5801 5805 5808 5812 5815 5818 5821 5823 5826 5829 5831 5834 5836 5837 5838 5839 5839 5839 5840 5839 5838 5838 5836 5834 5834 5833 5832 5830 5828 5827 5826 5825 5823 5822 5821 5820 5819 5818 5816 5815
5768 5774 5782 5787 5789 5790 5790 5792 5795 5798 5801 5804 5807 5810 5812 5815 5817 5820 5822 5825 5827 5829 5831 5832 5832 5832 5833 5833 5833 5832 5830 5829 5828 5826 5825 5824 5822 5820 5819 5817 5816 5815 5814 5813 5811 5810 5808 5807 5805
5766 5771 5776 5781 5784 5787 5787 5788 5791 5794 5797 5800 5803 5805 5808 5810 5813 5815 5816 5818 5820 5822 5824 5824 5825 5826 5826 5826 5825 5825 5823 5822 5820 5818 5816 5814 5813 5811 5810 5809 5807 5806 5804 5803 5802 5800 5799 5797 5795
5764 5768 5772 5778 5782 5785 5784 5785 5788 5790 5793 5795 5798 5800 5803 5805 5807 5809 5811 5812 5814 5815 5816 5817 5818 5818 5818 5817 5816 5816 5815 5813 5811 5809 5807 5805 5804 5802 5800 5799 5798 5796 5794 5793 5791 5789 5787 5786 5783
5763 5767 5770 5775 5778 5783 5783 5784 5783 5785 5788 5790 5792 5795 5797 5799 5801 5803 5804 5806 5807 5808 5808 5809 5809 5809 5809 5808 5807 5807 5805 5804 5802 5800 5798 5796 5794 5792 5790 5788 5786 5785 5784 5782 5779 5777 5776 5773 5771
5761 5764 5768 5772 5774 5776 5780 5781 5779 5780 5782 5784 5786 5788 5790 5792 5794 5795 5796 5798 5798 5799 5800 5800 5800 5800 5800 5799 5798 5796 5795 5793 5791 5789 5787 5785 5783 5781 5779 5777 5775 5773 5772 5769 5766 5764 5762 5760 5758